Regional Weather Roundup
Issued by NWS Bismarck, ND

Home | Current Version | Previous Version | Text Only | Print | Product List | Glossary On
Versions: 1 2 3 4 5 6 7 8 9 10 11 12 13 14 15 16 17 18 19 20 21 22 23 24 25 26 27 28 29 30 31 32 33 34 35 36 37 38 39 40 41 42 43 44 45 46 47 48 49 50
000
ASUS43 KBIS 210401
RWRBIS

NWR BROADCAST TEXT
NATIONAL WEATHER SERVICE BISMARCK ND
1100 PM CDT MON APR 20 2015

NOTE: "FAIR" INDICATES FEW OR NO CLOUDS BELOW 12,000 FEET WITH NO
SIGNIFICANT WEATHER AND/OR OBSTRUCTIONS TO VISIBILITY.


CITY           SKY/WX    TMP DP  RH WIND       PRES   REMARKS
WILLISTON      CLEAR     27  14  58 CALM      29.80F
MINOT          MOCLDY    36  15  42 NW12      29.77S
MINOT AFB      MOCLDY    38  16  41 NW13      29.77S
BISMARCK       CLEAR     40  11  30 N12       29.78S
DICKINSON      CLEAR     30  16  56 W7        29.80S
GARRISON         N/A     33  16  49 NW9       29.77F
HETTINGER ARPT CLEAR     28  15  58 NW3       29.85R
JAMESTOWN      PTCLDY    36  26  67 NW13      29.69R
CARRINGTON     FAIR      34  28  80 N8        29.73R
HAZEN          CLOUDY    37  10  32 NW10      29.80S
OAKES            N/A     34  28  80 W6        29.69F
STANLEY        MOCLDY    41  21  45 N13       29.80S
$$

CITY           SKY/WX    TMP DP  RH WIND       PRES   REMARKS
GRAND FORKS    CLOUDY    34  27  75 N25G33    29.65S
GRAND FORKS AF LGT RAIN  32  27  80 N21G32    29.65S WCI  20
DEVILS LAKE    CLEAR     34  25  69 N18       29.71S
FARGO          MIX PCPN  36  29  75 N24       29.65S
CANDO          FAIR      32  25  74 N17G26    29.73S
CAVALIER       CLOUDY    32  27  80 NW21G29   29.66S WCI  20
GRAFTON        CLOUDY    34  28  80 NW21G33   29.65F
GWINNER        PTCLDY    36  28  75 NW10      29.69F
LANGDON        CLOUDY    32  27  80 N22G33    29.68S WCI  19
ROLLA          MOCLDY    32  23  69 N26G33    29.74S WCI  18
WALHALLA       LGT RAIN  32  32 100 NW18G26   29.67F
$$

CITY           SKY/WX    TMP DP  RH WIND       PRES   REMARKS
ABERDEEN       CLEAR     34  23  64 NW8       29.74R
MOBRIDGE       CLEAR     32  15  49 NW5       29.76S
BUFFALO          N/A     36  19  50 W5        29.80S
RAPID CITY     CLEAR     34  22  61 N10       29.90R
GLASGOW        PTCLDY    43  20  39 SE10      29.78F
SIDNEY         MOCLDY    39  18  41 CALM      29.82S
WOLF POINT     MOCLDY    43  25  49 CALM      29.80F
GLENDIVE       CLOUDY    39  19  45 S3        29.84F
MILES CITY     CLEAR     43  18  36 S6        29.84F
BAKER          CLEAR     30  18  60 CALM      29.86F
$$

CITY           SKY/WX    TMP DP  RH WIND       PRES   REMARKS
BILLINGS       PTCLDY    48  23  37 N3        29.86S
GREAT FALLS    CLEAR     48  28  46 E7        29.85R
$$




USA.gov is the U.S. government's official web portal to all federal, state and local government web resources and services.